Flight Track Log - Related Links

Times and Time Zones

All times are in EDT time to prevent confusion due to time zone crossing. See the FFT426 flight status page for this flight to view local times or setup timezone preferences in your user account.


Time Position Orientation Groundspeed Altitude Reporting Facility
EDT Latitude Longitude Course Direction KTS MPH feet Rate Location/Type
Sat 09:04:52 PM 39.8667 -104.5833 105° East 191 220 6,900  Level Denver TRACON
Sat 09:05:52 PM 39.8500 -104.5000 102° East 248 285 8,100 1,714 Climbing Denver TRACON
Sat 09:06:58 PM 39.8333 -104.4000 100° East 285 328 10,500 2,190 Climbing Denver TRACON
Sat 09:07:58 PM 39.8167 -104.2833 100° East 315 362 12,700 2,300 Climbing Denver TRACON
Sat 09:08:58 PM 39.8000 -104.1667 99° East 330 380 15,100 2,216 Climbing Denver TRACON
Sat 09:09:49 PM 39.7875 -104.0656 100° East 341 392 16,800 2,054 Climbing Denver Center
Sat 09:10:49 PM 39.7725 -103.9525 101° East 354 407 18,900 1,800 Climbing Denver Center
Sat 09:11:49 PM 39.7531 -103.8208 97° East 360 414 20,400 1,450 Climbing Denver Center
Sat 09:12:49 PM 39.7392 -103.6756 97° East 387 445 21,800 1,550 Climbing Denver Center
Sat 09:13:49 PM 39.7247 -103.5250 96° East 414 476 23,500 1,800 Climbing Denver Center
Sat 09:14:49 PM 39.7125 -103.3689 97° East 425 489 25,400 1,750 Climbing Denver Center
Sat 09:15:49 PM 39.6975 -103.2103 106° East 425 489 27,000 1,450 Climbing Denver Center
Sat 09:16:49 PM 39.6614 -103.0447 110° East 432 497 28,300 1,350 Climbing Denver Center
Sat 09:17:49 PM 39.6172 -102.8906 110° East 438 504 29,700 1,300 Climbing Denver Center
Sat 09:18:49 PM 39.5725 -102.7339 111° Southeast 443 510 30,900 1,150 Climbing Denver Center
Sat 09:19:49 PM 39.5278 -102.5803 110° East 443 510 32,000 1,150 Climbing Denver Center
Sat 09:20:49 PM 39.4847 -102.4239 112° Southeast 448 516 33,200 1,250 Climbing Denver Center
Sat 09:21:49 PM 39.4353 -102.2653 111° Southeast 469 540 34,500 900 Climbing Denver Center
Sat 09:22:49 PM 39.3947 -102.1256 110° East 464 534 35,000 500 Climbing Denver Center
Sat 09:23:49 PM 39.3464 -101.9567 111° Southeast 459 528 35,500 800 Climbing Denver Center
Sat 09:24:49 PM 39.3056 -101.8222 109° East 454 522 36,600 750 Climbing Denver Center
Sat 09:25:49 PM 39.2589 -101.6483 111° Southeast 453 521 37,000 200 Climbing Denver Center
Sat 09:26:49 PM 39.2197 -101.5144 108° East 458 527 37,000  Level Denver Center
Sat 09:27:49 PM 39.1769 -101.3458 106° East 448 516 37,000  Level Denver Center
Sat 09:28:49 PM 39.1428 -101.1931 106° East 449 517 37,000  Level Denver Center
Sat 09:29:49 PM 39.1086 -101.0403 106° East 448 516 37,000  Level Denver Center
Sat 09:30:49 PM 39.0767 -100.8983 107° East 448 516 37,000  Level Denver Center
Sat 09:32:24 PM 39.0153 -100.6408 106° East 451 519 37,000 39 Level Kansas City Center
Sat 09:33:24 PM 38.9814 -100.4883 106° East 446 513 37,100  Climbing Kansas City Center
Sat 09:34:24 PM 38.9506 -100.3525 108° East 446 513 37,000 -50 Descending Kansas City Center
Sat 09:35:24 PM 38.9086 -100.1836 106° East 452 520 37,000  Level Kansas City Center
Sat 09:36:24 PM 38.8742 -100.0289 108° East 452 520 37,000  Level Kansas City Center
Sat 09:37:24 PM 38.8353 -99.8739 107° East 452 520 37,000 50 Level Kansas City Center
Sat 09:38:24 PM 38.8019 -99.7331 107° East 452 520 37,100 50 Climbing Kansas City Center
Sat 09:39:24 PM 38.7614 -99.5622 108° East 452 520 37,100 -50 Level Kansas City Center
Sat 09:40:24 PM 38.7239 -99.4133 107° East 447 514 37,000 -50 Descending Kansas City Center
Sat 09:41:24 PM 38.6881 -99.2647 106° East 447 514 37,000  Level Kansas City Center
Sat 09:42:24 PM 38.6525 -99.1108 108° East 447 514 37,000  Level Kansas City Center
Sat 09:43:24 PM 38.6144 -98.9569 109° East 447 514 37,000  Level Kansas City Center
Sat 09:44:24 PM 38.5742 -98.8058 107° East 447 514 37,000  Level Kansas City Center
Sat 09:45:24 PM 38.5378 -98.6522 108° East 447 514 37,000  Level Kansas City Center
Sat 09:46:24 PM 38.4992 -98.4989 108° East 447 514 37,000  Level Kansas City Center
Sat 09:47:24 PM 38.4603 -98.3483 108° East 447 514 37,000  Level Kansas City Center
Sat 09:48:24 PM 38.4214 -98.1925 107° East 447 514 37,000  Level Kansas City Center
Sat 09:49:24 PM 38.3844 -98.0422 108° East 447 514 37,000  Level Kansas City Center
Sat 09:50:24 PM 38.3450 -97.8842 110° East 453 521 37,000  Level Kansas City Center
Sat 09:51:24 PM 38.3072 -97.7503 116° Southeast 453 521 37,000  Level Kansas City Center
Sat 09:52:24 PM 38.2506 -97.6022 117° Southeast 453 521 37,000  Level Kansas City Center
Sat 09:53:24 PM 38.1936 -97.4572 115° Southeast 453 521 37,000  Level Kansas City Center
Sat 09:54:24 PM 38.1408 -97.3125 116° Southeast 453 521 37,000  Level Kansas City Center
Sat 09:55:24 PM 38.0858 -97.1706 116° Southeast 453 521 37,000  Level Kansas City Center
Sat 09:56:24 PM 38.0306 -97.0289 116° Southeast 453 521 37,000  Level Kansas City Center
Sat 09:57:24 PM 37.9750 -96.8875 115° Southeast 448 516 37,000  Level Kansas City Center
Sat 09:58:24 PM 37.9233 -96.7489 117° Southeast 448 516 37,000  Level Kansas City Center
Sat 09:59:24 PM 37.8675 -96.6078 116° Southeast 448 516 37,000  Level Kansas City Center
Sat 10:00:24 PM 37.8136 -96.4669 117° Southeast 448 516 37,000  Level Kansas City Center
Sat 10:01:24 PM 37.7575 -96.3289 117° Southeast 448 516 37,000  Level Kansas City Center
Sat 10:02:24 PM 37.7031 -96.1911 113° Southeast 443 510 37,000  Level Kansas City Center
Sat 10:03:24 PM 37.6550 -96.0483 116° Southeast 438 504 37,000  Level Kansas City Center
Sat 10:04:24 PM 37.5983 -95.9031 118° Southeast 444 511 37,000 50 Level Kansas City Center
Sat 10:05:24 PM 37.5394 -95.7631 117° Southeast 449 517 37,100  Climbing Kansas City Center
Sat 10:06:24 PM 37.4825 -95.6208 116° Southeast 455 524 37,000 -50 Descending Kansas City Center
Sat 10:07:24 PM 37.4253 -95.4764 116° Southeast 455 524 37,000  Level Kansas City Center
Sat 10:08:24 PM 37.3700 -95.3369 118° Southeast 455 524 37,000  Level Kansas City Center
Sat 10:09:24 PM 37.3106 -95.1981 116° Southeast 455 524 37,000  Level Kansas City Center
Sat 10:10:24 PM 37.2569 -95.0619 118° Southeast 455 524 37,000  Level Kansas City Center
Sat 10:11:24 PM 37.1992 -94.9233 117° Southeast 450 518 37,000  Level Kansas City Center
Sat 10:12:24 PM 37.1431 -94.7875 117° Southeast 450 518 37,000  Level Kansas City Center
Sat 10:13:24 PM 37.0869 -94.6519 118° Southeast 445 512 37,000  Level Kansas City Center
Sat 10:14:24 PM 37.0286 -94.5164 117° Southeast 445 512 37,000  Level Kansas City Center
Sat 10:16:05 PM 36.9347 -94.2889 119° Southeast 436 502 37,000  Level Memphis Center
Sat 10:17:05 PM 36.8742 -94.1511 118° Southeast 442 509 37,000  Level Memphis Center
Sat 10:18:05 PM 36.8158 -94.0136 118° Southeast 448 516 37,000  Level Memphis Center
Sat 10:19:05 PM 36.7553 -93.8736 116° Southeast 448 516 37,000  Level Memphis Center
Sat 10:20:05 PM 36.7008 -93.7342 111° Southeast 453 521 37,000  Level Memphis Center
Sat 10:21:05 PM 36.6547 -93.5847 110° East 453 521 37,000  Level Memphis Center
Sat 10:22:05 PM 36.6125 -93.4436 107° East 447 514 37,000  Level Memphis Center
Sat 10:23:05 PM 36.5764 -93.3000 111° Southeast 436 502 37,000  Level Memphis Center
Sat 10:24:05 PM 36.5317 -93.1564 111° Southeast 436 502 37,000  Level Memphis Center
Sat 10:25:05 PM 36.4869 -93.0103 111° Southeast 436 502 37,000  Level Memphis Center
Sat 10:26:05 PM 36.4400 -92.8592 110° East 436 502 37,000  Level Memphis Center
Sat 10:27:05 PM 36.3989 -92.7211 111° Southeast 431 496 37,000  Level Memphis Center
Sat 10:28:05 PM 36.3556 -92.5808 110° East 436 502 37,000  Level Memphis Center
Sat 10:29:05 PM 36.3183 -92.4536 113° Southeast 431 496 37,000  Level Memphis Center
Sat 10:30:05 PM 36.2706 -92.3133 110° East 431 496 37,000 50 Level Memphis Center
Sat 10:31:05 PM 36.2289 -92.1733 113° Southeast 431 496 37,100 50 Climbing Memphis Center
Sat 10:32:05 PM 36.1767 -92.0231 111° Southeast 431 496 37,100 -50 Level Memphis Center
Sat 10:33:05 PM 36.1328 -91.8808 111° Southeast 436 502 37,000 -50 Descending Memphis Center
Sat 10:34:05 PM 36.0906 -91.7414 113° Southeast 436 502 37,000  Level Memphis Center
Sat 10:35:05 PM 36.0419 -91.6019 112° Southeast 436 502 37,000  Level Memphis Center
Sat 10:36:05 PM 35.9975 -91.4653 111° Southeast 436 502 37,000  Level Memphis Center
Sat 10:37:05 PM 35.9547 -91.3264 111° Southeast 436 502 37,000  Level Memphis Center
Sat 10:38:05 PM 35.9119 -91.1875 113° Southeast 436 502 37,000  Level Memphis Center
Sat 10:39:05 PM 35.8647 -91.0511 110° East 436 502 37,000  Level Memphis Center
Sat 10:40:05 PM 35.8239 -90.9150 113° Southeast 436 502 37,000  Level Memphis Center
Sat 10:41:05 PM 35.7764 -90.7767 113° Southeast 436 502 37,000  Level Memphis Center
Sat 10:42:05 PM 35.7267 -90.6333 112° Southeast 436 502 37,000  Level Memphis Center
Sat 10:43:05 PM 35.6811 -90.4950 109° East 436 502 37,000  Level Memphis Center
Sat 10:44:05 PM 35.6456 -90.3647 112° Southeast 436 502 37,000  Level Memphis Center
Sat 10:45:05 PM 35.5997 -90.2242 113° Southeast 436 502 37,000  Level Memphis Center
Sat 10:46:05 PM 35.5453 -90.0686 111° Southeast 442 509 37,000  Level Memphis Center
Sat 10:47:05 PM 35.5008 -89.9286 113° Southeast 442 509 37,000  Level Memphis Center
Sat 10:48:05 PM 35.4525 -89.7861 113° Southeast 447 514 37,000  Level Memphis Center
Sat 10:49:05 PM 35.4036 -89.6464 112° Southeast 447 514 37,000  Level Memphis Center
Sat 10:50:05 PM 35.3569 -89.5042 114° Southeast 447 514 37,000  Level Memphis Center
Sat 10:51:05 PM 35.3081 -89.3672 113° Southeast 447 514 37,000  Level Memphis Center
Sat 10:52:05 PM 35.2653 -89.2433 113° Southeast 442 509 37,000  Level Memphis Center
Sat 10:53:05 PM 35.2181 -89.1067 113° Southeast 437 503 37,000  Level Memphis Center
Sat 10:54:06 PM 35.1706 -88.9700 114° Southeast 437 503 37,000  Level Memphis Center
Sat 10:55:05 PM 35.1211 -88.8314 114° Southeast 437 503 37,000  Level Memphis Center
Sat 10:56:05 PM 35.0733 -88.7003 113° Southeast 437 503 37,000  Level Memphis Center
Sat 10:57:05 PM 35.0211 -88.5492 110° East 437 503 37,000  Level Memphis Center
Sat 10:58:05 PM 34.9817 -88.4183 110° East 432 497 37,000  Level Memphis Center
Sat 11:05:32 PM 34.6742 -87.4296 111° Southeast  Level FlightAware Approximate
Sat 11:06:32 PM 34.6324 -87.2974 111° Southeast  Level FlightAware Approximate
Sat 11:07:32 PM 34.5903 -87.1654 111° Southeast  Level FlightAware Approximate
Sat 11:08:32 PM 34.5482 -87.0335 111° Southeast  Level FlightAware Approximate
Sat 11:09:32 PM 34.5059 -86.9017 111° Southeast  Level FlightAware Approximate
Sat 11:10:32 PM 34.4634 -86.7701 111° Southeast  Level FlightAware Approximate
Sat 11:11:32 PM 34.4209 -86.6386 111° Southeast  Level FlightAware Approximate
Sat 11:12:32 PM 34.3781 -86.5073 112° Southeast  Level FlightAware Approximate
Sat 11:13:32 PM 34.3353 -86.3761 112° Southeast  Level FlightAware Approximate
Sat 11:14:32 PM 34.2923 -86.2450 112° Southeast  Level FlightAware Approximate
Sat 11:15:32 PM 34.2491 -86.1140 112° Southeast  Level FlightAware Approximate
Sat 11:16:32 PM 34.2059 -85.9832 112° Southeast  Level FlightAware Approximate
Sat 11:17:32 PM 34.1624 -85.8525 112° Southeast  Level FlightAware Approximate
Sat 11:18:32 PM 34.1189 -85.7220 112° Southeast  Level FlightAware Approximate
Sat 11:19:32 PM 34.0752 -85.5916 112° Southeast  Level FlightAware Approximate
Sat 11:20:32 PM 34.0314 -85.4613 112° Southeast  Level FlightAware Approximate
Sat 11:21:32 PM 33.9874 -85.3311 112° Southeast  Level FlightAware Approximate
Sat 11:22:32 PM 33.9433 -85.2011 112° Southeast  Level FlightAware Approximate
Sat 11:23:32 PM 33.8990 -85.0713 112° Southeast  Level FlightAware Approximate
Sat 11:24:32 PM 33.8547 -84.9415 112° Southeast  Level FlightAware Approximate
Sat 11:25:32 PM 33.8101 -84.8119 112° Southeast  Level FlightAware Approximate
Sat 11:26:32 PM 33.7655 -84.6824 113° Southeast  Level FlightAware Approximate
Sat 11:27:32 PM 33.7207 -84.5531 92° East  Level FlightAware Approximate
Sat 11:28:32 PM 33.7167 -84.4157 90° East  Level FlightAware Approximate
Sat 11:29:32 PM 33.7167 -84.2757 90° East  Level FlightAware Approximate
Sat 11:30:32 PM 33.7167 -84.1356 250° West  Level FlightAware Approximate
Sat 11:31:32 PM 33.6775 -84.2675 250° West  Level FlightAware Approximate
Sat 11:32:32 PM 33.6378 -84.3989 268° West  Level FlightAware Approximate
Sat 11:33:32 PM 33.6326 -84.5387 87° East  Level Estimated
Sat 11:34:32 PM 33.6378 -84.3989 268° West  Level Estimated
Sat 11:35:32 PM 33.6326 -84.5387 87° East  Level Estimated
Sat 11:36:32 PM 33.6378 -84.3989 268° West  Level Estimated
Sat 11:37:32 PM 33.6326 -84.5387 90° East  Level Estimated
Sat 11:38:32 PM 33.6333 -84.4167 290° West  Level FlightAware Approximate
Sat 11:39:32 PM 33.6725 -84.5486 110° East  Level Estimated
Sat 11:40:32 PM 33.6333 -84.4167 290° West  Level FlightAware Approximate
Sat 11:41:32 PM 33.6725 -84.5486 110° East  Level Estimated
Sat 11:42:32 PM 33.6333 -84.4167 290° West  Level FlightAware Approximate
Sat 11:43:32 PM 33.6725 -84.5486 290° West  Level Estimated

Login

Don't have an account? Register now (free) for customized features, flight alerts, and more!